Location: Kaseke
(18.0171°S, 31.0526°E)
Time: 05:33:18
(UTC+00:00)

Envisat - Visible Passes

Search period start: 24 June 2021 00:00
Search period end: 04 July 2021 00:00
Orbit: 764 x 766 km, 98.1° (Epoch: 23 June)

Date Brightness Start Highest point End Pass type
(mag) Time Alt. Az. Time Alt. Az. Time Alt. Az.
24 Jun 5.0 01:57:31 10° NE 02:01:32 24° ESE 02:03:51 17° SE visible
24 Jun 4.2 03:36:21 10° NNW 03:40:19 23° W 03:44:03 11° SW visible
24 Jun 5.3 15:57:33 10° SSW 16:01:32 23° WSW 16:05:30 10° NW visible
25 Jun 2.9 02:58:27 10° N 03:03:27 63° WNW 03:06:44 22° SSW visible
26 Jun 3.9 02:21:53 10° NNE 02:26:44 47° ESE 02:29:25 25° SSE visible
26 Jun 5.9 16:25:00 10° SW 16:26:40 12° WSW 16:28:20 10° W visible
27 Jun 5.4 01:46:47 10° ENE 01:50:08 18° ESE 01:52:07 15° SE visible
27 Jun 3.8 03:24:23 10° NNW 03:28:49 31° W 03:32:18 15° SW visible
27 Jun 4.9 15:45:40 10° SSW 15:50:08 31° WSW 15:54:34 10° NW visible
28 Jun 2.9 02:46:56 10° N 02:52:00 86° WNW 02:55:00 26° SSW visible
29 Jun 4.4 02:10:44 10° NE 02:15:19 35° ESE 02:17:41 23° SSE visible
29 Jun 4.6 03:51:18 10° NW 03:54:14 15° W 03:57:12 10° WSW visible
29 Jun 5.7 16:12:17 10° SW 16:15:18 16° WSW 16:18:18 10° WNW visible
30 Jun 5.7 01:36:27 10° E 01:38:46 13° ESE 01:40:23 12° SE visible
30 Jun 3.4 03:12:35 10° N 03:17:21 42° W 03:20:34 19° SW visible
01 Jul 3.2 02:35:31 10° NNE 02:40:34 71° ESE 02:43:17 28° S visible
02 Jul 4.9 01:59:44 10° NE 02:03:55 26° ESE 02:05:58 20° SE visible
02 Jul 4.3 03:38:58 10° NNW 03:42:44 21° W 03:46:10 11° SW visible
02 Jul 5.5 16:00:08 10° SSW 16:03:55 21° WSW 16:07:42 10° WNW visible
03 Jul 3.0 03:00:54 10° N 03:05:52 57° W 03:08:52 24° SSW visible
